Погода в Абе

Нигерия     5°05′53″N   7°21′26″E
темп.,
°C
ветер,
м/с
пор.,
м/с
влажн.,
%
обл.,
%
осадки,
мм/ч
давл.,
гПа
погр.,
м
11 апреля, вс
вс1101:00+26ююз1285100 3.1 100990
04:00+24зюз3495100 25.4 1008184
07:00+24ююз2587100 27.3 1008184
10:00+27всв2276100 0.0 1010377
13:00+29ююз246766 0.0 1009895
16:00+29ююз566676 0.1 10071187
19:00+26ю477913 0.1 1009383
22:00+26ююз268492 0.0 1012269
12 апреля, пн
пн1201:00+25юв248563 0.0 1011156
04:00+24ю238896 0.0 100979
07:00+25юз238887 0.0 1010111
10:00+29юв357299 0.0 1012766
13:00+33ююв235338 0.0 10101333
16:00+34ююз434833 0.0 10081860
19:00+28ю377279 0.0 1009264
22:00+27зсз2479100 0.0 1011157
13 апреля, вт
вт1301:00+27з2281100 0.0 1010100
04:00+26ююз2486100 0.0 1009184
07:00+26ююз2688100 0.0 1011308
10:00+31ююз346386 0.0 10121222
13:00+32ю3357100 0.1 10111333
16:00+33ююв435376 0.1 10081307
19:00+28ю597124 0.1 1009381
22:00+27юз2582100 1.4 1012193
14 апреля, ср
ср1401:00+26з2388100 3.3 1011104
04:00+26ююз2690100 0.0 1008226
07:00+26ююз1489100 0.0 1010178
10:00+28ю2376100 0.3 1013589
13:00+32ююв3359100 0.8 10101455
16:00+30ююв3462100 0.2 1009989
19:00+28ю4775100 0.2 1009308
22:00+26ююз378470 0.4 1012283
15 апреля, чт
чт1501:00+26зюз2488100 0.4 1010152
04:00+25юз2290100 0.0 100968
07:00+25ююв2391100 0.0 1010129
10:00+31ююз126235 0.0 1011842
13:00+35зюз1145100 0.0 10091488
16:00+35ююз2141100 0.0 10062059
19:00+29ю4870100 0.0 1007329
22:00+26юз4883100 2.1 1010450